Weather observations for the past three days for
Toccoa Le Tourneau Airport
Imperial (Metric)
Date Time (edt) Wind (mph) Vis. (mi.) Weather Sky Cond. Temperature (ºF) Relative Humidity Wind Chill (°F) Heat Index (°F) Pressure Precipitation (in)
Air Dwpt 6 hour altimeter (in) sea level (mb) 1 hr 3 hr 6 hr
Max. Min.
14 17:55 NW 5 10.00 Fair CLR 94.6 69.6 44% 101 30.06 0.0
14 17:35 SW 5 10.00 Fair CLR 94.3 68.7 43% 99 30.06 0.0
14 17:15 NE 3 10.00 Fair CLR 94.3 69.4 44% 100 30.07 0.0
14 16:55 NE 3 10.00 Fair CLR 93.6 68.9 45% 99 30.08 0.0
14 16:35 NE 5 10.00 Fair CLR 93.4 70.3 47% 100 30.08 0.0
14 16:15 NE 8 10.00 Fair CLR 92.7 69.4 47% 98 30.09 0.0
14 15:55 NE 12 10.00 Fair CLR 95.5 69.1 42% 101 30.1 0.0
14 15:35 N 6 10.00 Fair CLR 95.5 66.2 38% 99 30.1 0.0
14 15:15 Calm 10.00 Fair CLR 96.6 63.3 33% 98 30.11 0.0
14 14:55 SW 12 G 17 10.00 Fair CLR 97.3 64.6 34% 100 30.11 0.0
14 14:35 W 7 10.00 Fair CLR 97.7 63 32% 99 30.12 0.0
14 14:15 W 8 10.00 Fair CLR 97.3 64.6 34% 100 30.13 0.0
14 13:55 W 8 10.00 Fair CLR 96.8 63.5 96.8 75.2 33% 99 30.13 0.0
14 13:35 W 7 10.00 Fair CLR 95.9 63.7 35% 98 30.14 0.0
14 13:15 W 9 10.00 Fair CLR 95.5 66.4 38% 99 30.14 0.0
14 12:55 W 7 10.00 Fair CLR 95.4 66.7 39% 99 30.16 0.0
14 12:35 SW 9 10.00 Fair CLR 92.8 70.2 48% 99 30.16 0.0
14 12:15 W 3 10.00 Fair CLR 92.1 71.4 51% 99 30.17 0.0
14 11:55 SW 7 10.00 Fair CLR 90.9 72.3 55% 99 30.17 0.0
14 11:35 NW 3 10.00 Fair CLR 90.1 72 55% 97 30.17 0.0
14 11:15 Calm 10.00 Fair CLR 89.2 73 59% 97 30.18 0.0
14 10:55 Calm 10.00 Fair CLR 88.5 73.6 61% 97 30.17 0.0
14 10:35 Calm 10.00 Fair CLR 86.4 72 62% 93 30.17 0.0
14 10:15 Calm 10.00 Fair CLR 85.1 72.7 66% 92 30.18 0.0
14 09:55 Calm 10.00 Partly Cloudy SCT110 83.8 70.7 65% 89 30.18 0.0
14 09:35 NE 5 10.00 Partly Cloudy SCT110 82.4 71.4 70% 87 30.18 0.0
14 09:15 Calm 10.00 Fair CLR 81 71.2 72% 85 30.18 0.0
14 08:55 Calm 10.00 Fair CLR 79.3 70.3 74% 82 30.18 0.0
14 08:35 N 3 10.00 Fair CLR 77.9 69.8 76% 80 30.18 0.0
14 08:15 N 5 10.00 Fair CLR 77.2 69.1 76% 79 30.18 0.0
14 07:55 Calm 10.00 Fair CLR 75 69.4 75.2 70.2 83% 75 30.18 0.0
14 07:35 Calm 10.00 Fair CLR 73.8 68.9 85% 30.17 0.0
14 07:15 NW 5 10.00 Fair CLR 72.5 69.1 89% 30.17 0.0
14 06:55 NW 3 10.00 Fair CLR 72 69.3 91% 30.17 0.0
14 06:35 N 3 10.00 Fair CLR 70.5 69.1 95% 30.16 0.0
14 06:15 N 3 10.00 Fair CLR 72.3 69.3 90% 30.15 0.0
14 05:55 Calm 10.00 Fair CLR 72 69.3 91% 30.15 0.0
14 05:35 Calm 10.00 Fair CLR 72.3 69.8 92% 30.15 0.0
14 05:15 Calm 10.00 Fair CLR 73 69.8 90% 30.15 0.0
14 04:55 N 5 10.00 Fair CLR 73.6 69.8 88% 30.15 0.0
14 04:35 Calm 10.00 Fair CLR 72.7 70.3 92% 30.15 0.0
14 04:15 N 3 10.00 Fair CLR 72.7 70.5 93% 30.15 0.0
14 03:55 Calm 10.00 Fair CLR 73.4 70.7 91% 30.15 0.0
14 03:35 Calm 10.00 Fair CLR 73.6 70.9 91% 30.15 0.0
14 03:15 Calm 10.00 Fair CLR 73.8 71.2 92% 30.16 0.0
14 02:55 Calm 10.00 Fair CLR 73.9 71.6 92% 30.17 0.0
14 02:35 Calm 10.00 Fair CLR 73.4 71.6 94% 30.17 0.0
14 02:15 Calm 10.00 Fair CLR 73.6 72 95% 30.18 0.0
14 01:55 Calm 10.00 Fair CLR 73.6 72 83.7 73.6 95% 30.18 0.0
14 01:35 Calm 10.00 Fair CLR 73.8 71.8 94% 30.18 0.0
14 01:15 N 3 10.00 Fair CLR 76.3 72 87% 77 30.18 0.0
14 00:55 Calm 10.00 Fair CLR 77.2 71.8 84% 79 30.19 0.0
14 00:35 NW 6 10.00 Fair CLR 76.8 72.7 87% 78 30.18 0.0
14 00:15 NW 3 10.00 Fair CLR 75.2 73 93% 74 30.18 0.0
13 23:55 Calm 10.00 Partly Cloudy SCT100 76.6 73 89% 77 30.19 0.0
13 23:35 NW 3 10.00 Partly Cloudy SCT100 76.8 73.4 89% 78 30.19 0.0
13 23:15 Calm 10.00 Partly Cloudy SCT100 77.7 73.4 87% 80 30.19 0.0
13 22:55 Calm 10.00 Fair CLR 76.8 73.6 90% 78 30.18 0.0
13 22:35 Calm 10.00 Fair CLR 78.3 74.1 87% 81 30.18 0.0
13 22:15 Calm 10.00 Fair CLR 78.6 74.3 87% 82 30.18 0.0
13 21:55 Calm 10.00 Fair CLR 79.9 74.1 83% 84 30.18 0.0
13 21:35 Calm 10.00 Fair CLR 79.9 73.9 82% 84 30.18 0.0
13 21:15 Calm 10.00 Fair CLR 80.6 72.1 76% 85 30.18 0.0
13 20:55 S 3 10.00 Fair CLR 81.1 73.6 78% 86 30.17 0.0
13 20:35 Calm 10.00 Fair CLR 82.8 74.8 77% 90 30.17 0.0
13 20:15 Calm 10.00 Fair CLR 82.6 74.8 78% 90 30.17 0.0
13 19:55 Calm 10.00 Fair CLR 83.7 75 95.4 83.3 75% 91 30.17 0.0
13 19:35 E 3 10.00 Fair CLR 85.5 74.7 70% 94 30.17 0.0
13 19:15 Calm 10.00 Fair CLR 88.5 70 54% 94 30.16 0.0
13 18:55 Calm 10.00 Fair CLR 89.2 70.7 54% 95 30.16 0.0
13 18:35 Calm 10.00 Fair CLR 89.1 71.1 55% 95 30.16 0.0
13 18:15 Calm 10.00 Fair CLR 87.8 72 59% 94 30.16 0.0
13 17:55 Calm 10.00 Fair CLR 86.7 73.4 65% 94 30.16 0.0
13 17:35 Calm 10.00 Partly Cloudy SCT120 87.6 73.2 62% 95 30.16 0.0
13 17:15 Calm 10.00 Partly Cloudy SCT120 86.4 72.7 64% 93 30.16 0.0
13 16:55 Calm 10.00 Partly Cloudy SCT120 86.7 72.5 63% 94 30.17 0.0
13 16:35 Calm 10.00 Fair CLR 88.3 70.5 56% 94 30.17 0.0
13 16:15 N 6 10.00 Partly Cloudy SCT110 90.1 69.8 51% 95 30.17 0.0
13 15:55 NE 6 10.00 Partly Cloudy SCT110 89.2 69.1 51% 94 30.17 0.0
13 15:35 NE 8 10.00 Mostly Cloudy SCT055 BKN120 88.3 68.5 52% 92 30.18 0.0
13 15:15 N 14 G 20 10.00 Overcast BKN055 OVC110 87.8 67.8 52% 91 30.19 0.0
13 14:55 SW 7 10.00 Partly Cloudy SCT100 SCT120 93.4 68 44% 98 30.19 0.0
13 14:35 NW 5 10.00 Partly Cloudy SCT055 92.5 66.4 42% 96 30.19 0.0
13 14:15 SW 6 10.00 Partly Cloudy SCT055 92.8 68.2 45% 97 30.19 0.0
13 13:55 S 6 7.00 Fair CLR 91.9 66.7 93.6 76.6 44% 95 30.2 0.0
13 13:35 N 3 10.00 Fair CLR 91.4 66.6 44% 94 30.21 0.0
13 13:15 SW 6 10.00 Partly Cloudy SCT040 91.8 69.6 48% 97 30.21 0.0
13 12:55 SE 5 10.00 Partly Cloudy SCT034 90 72 56% 97 30.22 0.0
13 12:35 S 7 10.00 Fair CLR 88.9 72.9 59% 97 30.22 0.0
13 12:15 NE 3 10.00 Partly Cloudy SCT029 88.3 72.1 59% 95 30.23 0.0
13 11:55 W 5 10.00 Mostly Cloudy BKN029 88.2 72.3 60% 95 30.23 0.0
13 11:35 Calm 10.00 Partly Cloudy SCT027 SCT110 86.9 73.4 64% 95 30.23 0.0
13 11:15 NE 3 10.00 Partly Cloudy SCT110 86.2 74.3 68% 95 30.24 0.0
13 10:55 E 5 10.00 Partly Cloudy SCT110 84.9 73.6 69% 92 30.24 0.0
13 10:35 Calm 10.00 Partly Cloudy SCT110 83.7 73.2 71% 90 30.24 0.0
13 10:15 SE 5 10.00 Fair CLR 83.1 72.9 71% 89 30.24 0.0
13 09:55 Calm 10.00 Fair CLR 82.2 72.3 72% 87 30.24 0.0
13 09:35 NE 3 10.00 Fair CLR 81.9 72 72% 87 30.24 0.0
13 09:15 NE 5 10.00 Fair CLR 80.6 71.6 74% 85 30.24 0.0
13 08:55 NE 5 10.00 Fair CLR 79.7 72.9 80% 84 30.23 0.0
13 08:35 E 3 10.00 Fair CLR 79.3 72.9 81% 83 30.23 0.0
13 08:15 NE 3 10.00 Partly Cloudy SCT018 78.4 72.7 83% 81 30.23 0.0
13 07:55 N 3 10.00 Mostly Cloudy BKN018 76.6 71.6 76.8 73.9 84% 78 30.22 0.0
13 07:35 Calm 10.00 Mostly Cloudy BKN018 75.2 71.2 88% 75 30.21 0.0
13 07:15 N 3 10.00 Mostly Cloudy BKN018 75 71.2 88% 74 30.21 0.0
13 06:55 Calm 10.00 Partly Cloudy SCT018 74.3 71.1 90% 30.2 0.0
13 06:35 N 3 10.00 Partly Cloudy SCT018 75.2 71.1 87% 75 30.2 0.0
13 06:15 N 3 10.00 Partly Cloudy SCT024 75.6 71.2 87% 76 30.2 0.0
13 05:55 N 3 10.00 Mostly Cloudy BKN022 76.1 71.4 86% 77 30.19 0.0
13 05:35 N 6 10.00 Overcast OVC020 76.5 71.2 84% 77 30.19 0.0
13 05:15 NE 6 10.00 Overcast OVC018 76.5 71.1 83% 77 30.18 0.0
13 04:55 N 5 10.00 Overcast OVC018 76.3 70.9 83% 77 30.18 0.0
13 04:35 N 6 10.00 Overcast OVC016 75.9 70.9 84% 76 30.17 0.0
13 04:15 N 5 10.00 Overcast OVC018 75.7 70.9 85% 76 30.17 0.0
13 03:55 N 5 10.00 Partly Cloudy SCT018 75 70.5 86% 75 30.17 0.0
13 03:35 N 6 10.00 Fair CLR 75 70.5 86% 75 30.16 0.0
13 03:15 Calm 10.00 Fair CLR 75.7 70.3 83% 76 30.16 0.0
13 02:55 N 6 10.00 Fair CLR 75.2 70.3 85% 75 30.17 0.0
13 02:35 N 5 10.00 Fair CLR 75.7 70.3 83% 76 30.17 0.0
13 02:15 N 6 10.00 Fair CLR 75 70.3 85% 75 30.17 0.0
13 01:55 NE 5 10.00 Fair CLR 76.5 70.3 86.7 74.7 81% 78 30.18 0.0
13 01:35 N 3 10.00 Partly Cloudy SCT070 SCT090 75.9 70.5 83% 77 30.18 0.0
13 01:15 N 3 10.00 Overcast BKN070 OVC080 76.6 70.5 81% 78 30.18 0.0
13 00:55 N 3 10.00 Overcast OVC070 75.9 70.9 84% 76 30.18 0.0
13 00:35 N 5 10.00 Overcast OVC070 75.6 71.6 88% 75 30.17 0.0
13 00:15 N 3 10.00 Overcast OVC080 75.9 71.2 85% 76 30.17 0.0
12 23:55 N 5 10.00 Mostly Cloudy BKN080 75.9 71.6 87% 76 30.16 0.0
12 23:35 NE 3 10.00 Fair CLR 75 72.5 92% 74 30.15 0.0
12 23:15 NE 3 10.00 Fair CLR 76.5 73.2 90% 77 30.15 0.0
12 22:55 NE 5 10.00 Fair CLR 74.7 71.8 91% 30.15 0.0
12 22:35 Calm 10.00 Fair CLR 77.9 70.9 79% 80 30.14 0.0
12 22:15 Calm 10.00 Fair CLR 79.2 70.3 74% 82 30.13 0.0
12 21:55 W 3 10.00 Fair CLR 79.7 71.2 75% 83 30.13 0.0
12 21:35 Calm 10.00 Fair CLR 79.2 72 79% 82 30.12 0.0
12 21:15 Calm 10.00 Fair CLR 81.1 72.3 75% 86 30.12 0.0
12 20:55 Calm 10.00 Partly Cloudy SCT080 81.7 72.5 74% 87 30.12 0.0
12 20:35 Calm 10.00 Partly Cloudy SCT110 82.6 73 73% 88 30.11 0.0
12 20:15 Calm 10.00 Mostly Cloudy BKN110 84.7 72.9 68% 91 30.11 0.0
12 19:55 Calm 10.00 Partly Cloudy SCT110 87.1 70.2 94.1 86.9 57% 92 30.1 0.0
12 19:35 Calm 10.00 Partly Cloudy SCT110 87.8 69.3 54% 92 30.1 0.0
12 19:15 Calm 10.00 Fair CLR 88.9 69.1 52% 93 30.09 0.0
12 18:55 Calm 5.00 Fair with Haze CLR 89.4 69.6 52% 94 30.08 0.0
12 18:35 E 3 10.00 Partly Cloudy SCT110 89.2 68.5 51% 93 30.08 0.0
12 18:15 E 3 10.00 Mostly Cloudy BKN110 90.5 66 44% 93 30.08 0.0
12 17:55 E 3 10.00 Mostly Cloudy SCT070 BKN110 89.1 64.6 44% 91 30.08 0.0
12 17:35 Calm 10.00 Partly Cloudy SCT100 SCT120 91.2 64 41% 93 30.08 0.0
12 17:15 Calm 10.00 Partly Cloudy SCT100 91.6 62.6 38% 92 30.07 0.0
12 16:55 Calm 10.00 Fair CLR 92.1 62.4 37% 93 30.08 0.0
12 16:35 SW 3 10.00 Fair CLR 91 63.5 40% 92 30.08 0.0
12 16:15 E 5 10.00 Fair CLR 92.1 64.2 40% 94 30.08 0.0
12 15:55 NE 5 10.00 Fair CLR 91.8 64 40% 93 30.08 0.0
12 15:35 NE 6 10.00 Fair CLR 92.5 63.7 38% 94 30.09 0.0
12 15:15 SE 3 10.00 Fair CLR 91.2 62.1 38% 92 30.09 0.0
12 14:55 E 5 10.00 Fair CLR 91.2 61.2 37% 91 30.09 0.0
12 14:35 E 5 10.00 Fair CLR 90.9 59.5 35% 90 30.1 0.0
12 14:15 NE 6 10.00 Fair CLR 90.5 58.5 34% 90 30.1 0.0
12 13:55 Calm 7.00 Fair CLR 90.3 59.5 91.9 73.2 36% 90 30.11 0.0
12 13:35 S 3 10.00 Fair CLR 88.7 62.8 42% 89 30.12 0.0
12 13:15 SE 3 10.00 Fair CLR 89.2 63 42% 90 30.12 0.0
12 12:55 SE 6 10.00 Fair CLR 88.9 63.9 43% 90 30.13 0.0
12 12:35 E 5 10.00 Fair CLR 88.2 64.2 45% 90 30.13 0.0
12 12:15 E 3 10.00 Fair CLR 87.4 65.1 48% 89 30.14 0.0
12 11:55 Calm 10.00 Fair CLR 86.9 64.2 47% 88 30.13 0.0
12 11:35 E 3 10.00 Fair CLR 85.8 65.7 51% 88 30.13 0.0
12 11:15 SE 3 10.00 Fair CLR 85.6 66.2 52% 88 30.13 0.0
12 10:55 Calm 10.00 Fair CLR 85.1 66.2 53% 87 30.13 0.0
12 10:35 NE 3 10.00 Fair CLR 84.6 66.2 54% 87 30.12 0.0
12 10:15 N 3 10.00 Fair CLR 83.1 65.5 55% 85 30.12 0.0
12 09:55 N 3 10.00 Fair CLR 81.3 66 60% 83 30.12 0.0
12 09:35 N 5 10.00 Fair CLR 80.6 66.4 62% 83 30.12 0.0
12 09:15 N 3 10.00 Fair CLR 78.3 66 66% 80 30.11 0.0
12 08:55 N 5 10.00 Fair CLR 76.8 65.5 68% 79 30.11 0.0
12 08:35 N 3 10.00 Fair CLR 76.3 65.5 69% 78 30.1 0.0
12 08:15 N 5 10.00 Fair CLR 74.5 64.9 72% 30.1 0.0
12 07:55 N 3 10.00 Partly Cloudy SCT070 73.2 64.8 73.4 67.6 75% 30.09 0.0
12 07:35 NW 7 10.00 Partly Cloudy SCT070 72 64.4 77% 30.09 0.0
12 07:15 NW 3 10.00 Partly Cloudy SCT080 69.6 64.8 85% 30.08 0.0
12 06:55 Calm 10.00 Partly Cloudy SCT070 68.7 64.9 88% 30.09 0.0
12 06:35 Calm 10.00 Mostly Cloudy BKN070 68 65.3 91% 30.08 0.0
12 06:15 Calm 10.00 Partly Cloudy SCT070 69.4 64.4 84% 30.08 0.0
12 05:55 Calm 10.00 Partly Cloudy SCT070 69.1 64.8 86% 30.08 0.0
12 05:35 Calm 10.00 Mostly Cloudy BKN070 68.4 64.8 88% 30.07 0.0
12 05:15 NE 5 10.00 Fair CLR 70 64.4 83% 30.07 0.0
12 04:55 NW 6 10.00 Partly Cloudy SCT070 71.1 64.4 80% 30.06 0.0
12 04:35 NW 8 10.00 Fair CLR 70.9 64.8 81% 30.06 0.0
12 04:15 NW 7 10.00 Fair CLR 70.9 64.9 82% 30.06 0.0
12 03:55 NW 5 10.00 Fair CLR 70.7 65.3 83% 30.06 0.0
12 03:35 N 6 10.00 Fair CLR 71.2 65.3 82% 30.06 0.0
12 03:15 N 5 10.00 Fair CLR 71.2 65.5 82% 30.06 0.0
12 02:55 N 5 10.00 Fair CLR 71.2 65.8 83% 30.06 0.0
12 02:35 N 3 10.00 Fair CLR 71.4 65.7 82% 30.06 0.0
12 02:15 NW 5 10.00 Fair CLR 71.4 66.2 84% 30.06 0.0
12 01:55 NW 7 10.00 Fair CLR 72 66.4 85.6 69.6 83% 30.06 0.0
12 01:35 NW 6 10.00 Fair CLR 71.1 67.3 88% 30.06 0.0
12 01:15 Calm 10.00 Fair CLR 71.8 67.6 87% 30.06 0.0
12 00:55 Calm 10.00 Fair CLR 70.9 68.4 92% 30.07 0.0
12 00:35 NE 5 10.00 Fair CLR 69.8 67.6 93% 30.07 0.0
12 00:15 N 3 10.00 Fair CLR 72.1 67.1 84% 30.06 0.0
11 23:55 Calm 10.00 Fair CLR 71.8 68 88% 30.07 0.0
11 23:35 Calm 10.00 Fair CLR 73.2 68 84% 30.06 0.0
11 23:15 NW 3 10.00 Fair CLR 74.1 67.8 81% 30.06 0.0
11 22:55 Calm 10.00 Fair CLR 74.1 68.9 84% 30.05 0.0
11 22:35 Calm 10.00 Partly Cloudy SCT070 75 68.7 81% 76 30.05 0.0
11 22:15 Calm 10.00 Partly Cloudy SCT070 75.4 69.1 81% 76 30.05 0.0
11 21:55 Calm 10.00 Partly Cloudy SCT070 77 68.9 76% 79 30.04 0.0
11 21:35 Calm 10.00 Partly Cloudy SCT070 77 68.7 76% 79 30.04 0.0
11 21:15 Calm 10.00 Partly Cloudy SCT070 77.7 68.4 73% 80 30.03 0.0
11 20:55 Calm 10.00 Fair CLR 79.7 68.7 69% 82 30.03 0.0
11 20:35 Calm 10.00 Fair CLR 81.3 67.1 62% 84 30.03 0.0
11 20:15 Calm 10.00 Fair CLR 84.4 66.2 54% 87 30.03 0.0
11 19:55 Calm 10.00 Fair CLR 85.6 61.9 89.4 85.1 45% 86 30.03 0.0
11 19:35 Calm 10.00 Fair CLR 86 61.3 44% 86 30.03 0.0
11 19:15 Calm 10.00 Fair CLR 86.5 63 45% 87 30.02 0.0
11 18:55 Calm 10.00 Fair CLR 86.7 60.8 42% 87 30.02 0.0
11 18:35 Calm 10.00 Fair CLR 88 62.2 42% 88 30.02 0.0
Date Time (edt) Wind (mph) Vis. (mi.) Weather Sky Cond. Air Dwpt Max. Min. Relative Humidity Wind Chill (°F) Heat Index (°F) altimeter (in) sea level (mb) 1 hr 3 hr 6 hr
6 hour
Temperature (ºF) Pressure Precipitation (in)